Погода в Ижевске

Погода в Ижевске : погода сейчас, прогноз погоды и архив. Всё, что Вы хотите узнать о погоде в Ижевске!

Хотите узнать прогноз погоды в Ижевске? Тогда Вам сюда: Погода в Ижевске

Поиск расширенной информации на нашем сайте:

Другие новости

Новости СМИ2

Главная страница сайта

Новости сайта

03.07.2017

Напоминаем, что на нашем специализированном сайте Метеоцентр.Азия вы можете получить высокодетализированные автоматические прогнозы погоды по пунктам России, СНГ и мира в авиационном формате (включающие направление и скорость ветра, видимость, явления погоды, количество и форму облачности, нижнюю и верхнюю границу облачности).

Рекомендуем: биографии мастеров спорта, ашихара.

Погода в Ижевске - сегодня

Время (UTC), дата Ветер
(°,м/с) 
Видим.   Явления Облачность Т
(°С)
Тd
(°С)
f(%) Тe
(°С)
Pmin
(гПа)
dP
(гПа)
Po
(мм)
O2
(г/м3)
Тmin Tmax R s Состояние
почвы
03 13.04.18 270 (З) 2-3{04}  10 км    9/0 средняя 
[Ac trans]
-2.7 -7.2 71 -4  1018.8  0.5  749  305  -4.1      17  равномерный
мокрый или
старый снег
100% 
15 13.04.18 340 (С) 2-4{06}  10 км    8/4 1000 м средняя 
[Sc|Ac trans]
+5.4 -7.6 39 +5  1019.6  1.3  750  297    +7.8       
03 14.04.18 280 (З) 2-2{02}  10 км    4/0 средняя, верхняя 
[Ac trans|Ci fib]
-0.7 -4.9 73 -2  1025.1  1.1  754  305  -0.9      16  равномерный
мокрый или
старый снег
100% 
15 14.04.18 280 (З) 4-5{07}  10 км    3/0 верхняя 
[Ci fib]
+6.9 -8.8 32 +6  1022.9  -1.3  752  296    +8.9       
03 15.04.18 240 (ЮЗ) 2-3{04}  10 км    10/0 средняя, верхняя 
[Ac trans|Ci fib]
+0.8 -5.3 64 1020  -1  750  302  +0.8      16  равномерный
мокрый или
старый снег
100% 
15 15.04.18 280 (З) 8-12{12}  10 км    3/0 верхняя 
[Ci fib]
+8.9 -5 37 +7  1012.4  -1  745  291    +11.3       
03 16.04.18 тихо () -2{02}  10 км    10/0 верхняя 
[Ci fib]
-1.8 -5.5 76 -2  1017.7  1.3  748  304  -2      11  мокрый или
старый снег
50-90% 
06 16.04.18 300 (СЗ) 2-3{05}  10 км    10/0 верхняя 
[Ci fib]
+2.9 -5.9 52 +2    0.7  749  299           
15 16.04.18 320 (СЗ) 2-3{06}  10 км    10/0 верхняя 
[Ci fib]
+6.5 -9.6 31 +6  1016.7  -0.2  748  295    +8       
03 17.04.18 тихо () -0{02}  10 км    10/0 средняя, верхняя 
[Ac trans|Ci fib]
-3.7 -6.6 80 -4  1018.7  0.3  749  307  -4      мокрый или
старый снег
50-90% 
15 17.04.18 120 (ЮВ) 3-3{04}  10 км    3/0 средняя 
[Ac trans]
+7.2 -8.2 32 +6  1017.7  -0.3  749  295    +8.8       
18 17.04.18 110 (В) 3-3{04}  10 км    ясно 
+2.4 -7.1 49 +1  1018.5  0.4  749  300           
21 17.04.18 080 (В) 4-5{06}  10 км    ясно 
+0.4 -7 58 -2  1019.9  1.2  750  302           
03 18.04.18 090 (В) 2-3{04}  10 км    ясно 
-2.4 -7.2 70 -3  1022  0.6  751  306  -3.4      мокрый или
старый снег
50-90% 
06 18.04.18 080 (В) 4-5{05}  10 км    ясно 
+4 -5.5 50 +2  1021.8  0.3  751  299           
15 18.04.18 170 (Ю) 2-3{04}  10 км    3/0 верхняя 
[Ci fib]
+6.7 -5 43 +7  1018.3  -1.5  749  295    +8       
18 18.04.18 130 (ЮВ) 3-3{04}  10 км    ясно 
+1.5 -6.7 54 1017.5  -1.1  748  300           
21 18.04.18 120 (ЮВ) 3-4{05}  10 км    ясно 
-0.2 -7 60 -2  1015.8  -1.8  747  302           
03 19.04.18 090 (В) 5-6{07}  10 км    9/0 средняя 
[Ac trans]
+0.2 -6.9 59 -3  1011.5  -2  744  300  -0.4      мокрый или
старый снег
10-40% 
15 19.04.18 110 (В) 2-3{04}  10 км  слаб. дождь  10/3 1000 м средняя 
[Sc|Ac As]
+6.7 +2.4 74 +7  1005.6  -1.1  740  290    +10.6  0.0     
03 20.04.18 тихо () -0{02}  4000 м  слаб. дождь{туман}  10/8 600 м средняя 
[Sc|As op]
+3.8 +3.6 99 +4  1001.1  -0.5  736  292  +3.6    мокрый или
старый снег
10-40% 
15 20.04.18 020 (С) 4-5{08}  10 км    3/0 средняя 
[Ac trans]
+4.4 -9.5 36 +3  1005.9  0.9  740  294    +6.4  0.0     
03 21.04.18 340 (С) 2-3{03}  10 км    3/0 верхняя 
[Ci fib]
-5 -9.5 71 -6  1009.5  -0.3  742  305  -5.2      <0.5  мокрый или
старый снег
10-40% 
15 21.04.18 140 (ЮВ) 3-5{06}  10 км    10/0 средняя, верхняя 
[Ac trans|Ci fib]
+2.1 -11.1 37 +1  1003.8  -2.1  738  296    +4       
03 22.04.18 140 (ЮВ) 10-13{14}  10 км  в посл. час снег  10/8 600 м средняя 
[Sc|Ac As]
-0.6 -2.7 86 -6  989.8  -4.7  728  294  -1.6    равномерный
мокрый или
старый снег
100% 
Время (UTC), дата Ветер
(°,м/с) 
Видим.   Явления Облачность Т
(°С)
Тd
(°С)
f(%) Тe
(°С)
Pmin
(гПа)
dP
(гПа)
Po
(мм)
O2
(г/м3)
Тmin Tmax R s Состояние
почвы

Для получения пояснительной информации подведите курсор к названию столбца.

ПОГОДА в Ижевске - архив

Всё, что Вы хотите узнать о погоде в Ижевске - удобно и подробно!

Выберите нужную дату (начиная с 1 января 2015* года) и нажмите кнопку "Найти".
Будут отображены архивные сводки погоды по пункту Ижевск, начиная с указанной даты.


Отображать данные в формате CSV (для использования в таблицах Excel)


Внимание! Наш архив погоды предназначен исключительно для личного некоммерческого использования в познавательных целях. Если Вам необходимы официальные справки о состоянии погоды (для производственных, юридических, коммерческих и т.п. целей), обращайтесь в органы Росгидромета.

*Примечание: данная дата относится к архиву по метеостанциям СССР (Россия, СНГ, Балтия).
Архив по метеостанциям Зарубежной Европы и Азии (кроме Китая) хранится 10 дней, по другим регионам земного шара (Китай, Африка, Америка, Австралия, Океания) - 1 день.

Ижевск - район местоположения метеостанции


Название, широта, долгота, высота метеостанции:
Ижевск 56.8°ш. 53.4°д. 159 м над ур. моря [Российская Федерация]

Дополнительная информация

В oтличие oт бoльшинства пoгoдных сайтoв мы публикуем пoдрoбную метеoинфoрмацию в детальнoм прoфессиoнальнoм фoрмате.

Характеристики температуры и влажнoсти вoздуха измеряются на высoте 2 м в тени вдали oт зданий и деревьев.
Скoрoсть ветра измеряется на высoте 10 м (на урoвне рoста челoвека скoрoсть ветра ниже в 1.5-2 раза). Если метеoстанция нахoдится в гoрoде или в лесу, тo скoрoсть ветра занижена на 2-4 м/с пo сравнению с oткрытым местoм. Скoрoсть ветра над акватoриями крупных рек и oзёр, а также на вершинах хoлмoв на 2-5 м/с выше, чем в oбычных услoвиях.
Атмoсфернoе давление в разных тoчках местнoсти мoжет значительнo oтличаться oт давления на метеoстанции, в зависимoсти oт услoвий рельефа (при пoдъёме на 10 м давление пoнижается примернo на 1 мм рт.ст.).